Traverse City, MI

7:39 PM EDT on April 28, 2017 (GMT -0400)
Cherry Capital

Weather History for KTVC - October, 2012

Change the Weather History Date:

Saturday, October 6, 2012

  Actual Average Record
Temperature  
Mean Temperature 44 °F 52 °F  
Max Temperature 49 °F 61 °F 87 °F (2007)
Min Temperature 39 °F 42 °F 26 °F (1964)
Degree Days  
Heating Degree Days 21 14  
Month to date heating degree days 74 76  
Since 1 July heating degree days 302 338  
Cooling Degree Days 0 0  
Month to date cooling degree days 0 0  
Year to date cooling degree days 808 407  
Moisture  
Dew Point 35 °F    
Average Humidity 67    
Maximum Humidity 85    
Minimum Humidity 49    
Precipitation  
Precipitation 0.21 in 0.11 in 0.63 in (1978)
Month to date precipitation 0.71 0.65  
Year to date precipitation 22.63 25.29  
Sea Level Pressure  
Sea Level Pressure 29.99 in    
Wind  
Wind Speed 11 mph (WNW)    
Max Wind Speed 24 mph    
Max Gust Speed 31 mph    
Visibility 9 miles    
Events Rain    
T = Trace of Precipitation, MM = Missing Value Source: NWS Daily Summary

Daily Weather History Graph

Daily Weather History Graph

Search for Another Location

Airport or City:

Trip Planner

Search our weather history database for the weather conditions in past years. The results will help you decide how hot, cold, wet, or windy it might be!

Date:

Astronomy

Oct. 06, 2012 Rise Set
Actual Time 7:47 AM EDT 7:12 PM EDT
Civil Twilight 7:17 AM EDT 7:41 PM EDT
Nautical Twilight 6:43 AM EDT 8:15 PM EDT
Astronomical Twilight 6:09 AM EDT 8:49 PM EDT
Moon 11:16 PM EDT (10/6) 1:52 PM EDT (10/6)
Length of Visible Light 12h 24m
Length of Day
11h 25m
Waning Gibbous, 65% of the Moon is Illuminated
Oct 6
Waning Gibbous
Oct 8
Last Quarter
Oct 15
New
Oct 21
First Quarter
Oct 29
Full

Hourly Weather History & Observations

Time (EDT) Temp. Windchill Dew Point Humidity Pressure Visibility Wind Dir Wind Speed Gust Speed Precip Events Conditions
12:53 AM 46.0 °F 39.0 °F 28.0 °F 50% 29.90 in 10.0 mi West 17.3 mph 27.6 mph N/A   Overcast
1:53 AM 45.0 °F 38.9 °F 28.0 °F 52% 29.90 in 10.0 mi West 12.7 mph - N/A   Overcast
2:53 AM 45.0 °F 38.2 °F 30.0 °F 56% 29.89 in 10.0 mi West 15.0 mph - N/A   Overcast
3:53 AM 44.1 °F 37.1 °F 30.9 °F 60% 29.89 in 10.0 mi West 15.0 mph - N/A   Overcast
4:53 AM 44.1 °F 36.8 °F 32.0 °F 63% 29.88 in 10.0 mi West 16.1 mph 19.6 mph N/A   Overcast
5:53 AM 45.0 °F 39.3 °F 33.1 °F 63% 29.88 in 10.0 mi West 11.5 mph - N/A   Overcast
6:53 AM 41.0 °F 34.3 °F 37.0 °F 86% 29.90 in 7.0 mi West 11.5 mph - 0.01 in Rain Light Rain
7:00 AM 42.8 °F 35.4 °F 35.6 °F 76% 29.88 in 10.0 mi West 15.0 mph - 0.00 in Rain Light Rain
7:41 AM 41.0 °F 34.7 °F 35.6 °F 81% 29.90 in 10.0 mi West 10.4 mph - 0.00 in   Mostly Cloudy
7:53 AM 41.0 °F 33.5 °F 36.0 °F 82% 29.91 in 10.0 mi WNW 13.8 mph - 0.00 in Rain Light Rain
8:53 AM 42.1 °F 37.1 °F 36.0 °F 79% 29.94 in 10.0 mi West 8.1 mph - 0.01 in Rain Light Rain
10:21 AM 42.8 °F 35.1 °F 37.4 °F 81% 29.95 in 8.0 mi NW 16.1 mph 23.0 mph 0.00 in Rain Light Rain
10:53 AM 41.0 °F 33.9 °F 37.0 °F 86% 29.98 in 8.0 mi WNW 12.7 mph 20.7 mph 0.04 in Rain Light Rain
11:38 AM 42.8 °F 35.1 °F 37.4 °F 81% 29.97 in 10.0 mi West 16.1 mph - 0.01 in   Overcast
11:53 AM 44.1 °F 37.4 °F 39.0 °F 82% 29.99 in 10.0 mi West 13.8 mph - 0.01 in   Overcast
12:53 PM 48.0 °F - 39.9 °F 74% 30.00 in 10.0 mi WNW 13.8 mph - 0.00 in   Mostly Cloudy
1:53 PM 46.9 °F - 36.0 °F 66% 30.01 in 10.0 mi NW 19.6 mph 31.1 mph 0.01 in   Scattered Clouds
2:53 PM 46.9 °F - 36.0 °F 66% 30.02 in 10.0 mi NW 19.6 mph 25.3 mph 0.00 in   Mostly Cloudy
3:53 PM 48.0 °F - 36.0 °F 63% 30.04 in 10.0 mi NW 9.2 mph - 0.00 in   Mostly Cloudy
4:53 PM 44.1 °F 37.7 °F 37.0 °F 76% 30.05 in 9.0 mi NNW 12.7 mph 19.6 mph 0.00 in Rain Light Rain
5:53 PM 44.1 °F 37.1 °F 36.0 °F 73% 30.06 in 10.0 mi NNW 15.0 mph 19.6 mph 0.01 in Rain Light Rain
7:53 PM 43.0 °F 40.3 °F 35.1 °F 74% 30.09 in 10.0 mi NNW 4.6 mph - N/A   Mostly Cloudy
8:38 PM 41.0 °F 33.9 °F 35.6 °F 81% 30.10 in 7.0 mi North 12.7 mph 18.4 mph 0.02 in Rain Light Rain
8:53 PM 41.0 °F 36.4 °F 36.0 °F 82% 30.12 in 8.0 mi North 6.9 mph - 0.03 in Rain Light Rain
9:41 PM 39.2 °F - 35.6 °F 87% 30.10 in 10.0 mi Calm Calm - 0.07 in Rain Light Rain
9:53 PM 39.9 °F 34.5 °F 36.0 °F 86% 30.12 in 6.0 mi North 8.1 mph - 0.07 in Rain Light Rain
10:53 PM 41.0 °F - 37.0 °F 86% 30.12 in 10.0 mi Calm Calm - 0.00 in   Mostly Cloudy
11:53 PM 39.9 °F - 36.0 °F 86% 30.13 in 10.0 mi Calm Calm - N/A   Overcast